Home > Weather > Togo > Lomé > Past weeks

Flag for Togo Weather past 2 weeks in Lomé, Togo

82 °F

Passing clouds.

Feels Like: 92 °F
Forecast: 80 / 89 °F
Wind: 8 mph from Southwest

Location: Lome Airport

Current Time: Dec 2, 2015 at 12:07:11 AM

Latest Report: Dec 1, 2015 at 11:00 PM

Visibility: N/A

Pressure: 29.92 "Hg

Humidity: 89%

Dew point: 79 °F

Location of LoméLocation

Historic Weather in Lomé — Graph


Lomé temperature yesterday

Maximum temperature yesterday: 90 °F (at 10:00 AM)
Minimum temperature yesterday: 81 °F (at 4:00 AM)
Average temperature yesterday: 85 °F

Past Weeks' High & Low Weather Summary

High91 °F (Nov 24, 12:30 PM)100% (Nov 18, 4:00 AM)29.98 "Hg (Nov 18, 4:00 AM)
Low79 °F (Nov 18, 4:00 AM)18% (Nov 25, 8:00 PM)29.74 "Hg (Nov 18, 3:00 PM)
Average85 °F83%29.85 "Hg
* Reported Nov 17 9:00 AM — Dec 1 10:00 PM, Lomé, Weather by CustomWeather, © 2015

Note: Actual official high and low records may vary slightly from our data, if they occured in-between our weather recording intervals... More about our weather records


Lomé weather history for previous 24 hours

Time TempWeatherWind HumidityBarometerVisibility
10:00 PM
Tue, Dec 1
82 °FPassing clouds.9 mph89%29.95 "HgN/A
9:30 PM84 °FPassing clouds.9 mph89%29.95 "HgN/A
9:00 PM84 °FPassing clouds.9 mph84%29.92 "HgN/A
8:30 PM84 °FPassing clouds.10 mph84%29.89 "HgN/A
8:00 PM84 °FPassing clouds.9 mph84%29.89 "HgN/A
7:30 PM84 °FPassing clouds.12 mph84%29.89 "HgN/A
7:00 PM84 °FPassing clouds.8 mph84%29.89 "HgN/A
6:30 PM84 °FPassing clouds.10 mph84%29.89 "HgN/A
6:00 PM84 °FPassing clouds.14 mph84%29.86 "HgN/A
5:30 PM86 °FPassing clouds.12 mph79%29.86 "HgN/A
5:00 PM86 °FPassing clouds.12 mph79%29.86 "HgN/A
4:30 PM86 °FPassing clouds.10 mph79%29.86 "HgN/A
4:00 PM86 °FPassing clouds.12 mph79%29.86 "HgN/A
3:30 PM86 °FPassing clouds.14 mph79%29.86 "HgN/A
3:00 PM88 °FPassing clouds.12 mph79%29.86 "HgN/A
2:30 PM90 °FPassing clouds.12 mph75%29.86 "HgN/A
2:00 PM90 °FPassing clouds.12 mph71%29.86 "HgN/A
1:30 PM90 °FPassing clouds.12 mph71%29.86 "HgN/A
1:00 PM90 °FPassing clouds.12 mph71%29.89 "HgN/A
12:30 PM90 °FPassing clouds.14 mph71%29.92 "HgN/A
12:00 PM90 °FPassing clouds.14 mph71%29.92 "HgN/A
11:30 AM90 °FPassing clouds.13 mph71%29.92 "HgN/A
11:00 AM90 °FPassing clouds.13 mph71%29.92 "HgN/A
10:30 AM90 °FPassing clouds.10 mph71%29.95 "HgN/A
10:00 AM90 °FPassing clouds.10 mph71%29.95 "HgN/A
9:30 AM88 °FScattered clouds.5 mph75%29.95 "HgN/A
9:00 AM86 °FScattered clouds.5 mph79%29.95 "HgN/A
8:00 AM84 °FScattered clouds.5 mph89%29.95 "Hg5 mi
7:30 AM82 °FPassing clouds.2 mph94%29.95 "Hg5 mi
7:00 AM81 °FPassing clouds.1 mph100%29.95 "Hg4 mi
6:30 AM81 °FPassing clouds.No wind94%29.92 "Hg4 mi
6:00 AM81 °FPassing clouds.1 mph94%29.92 "Hg4 mi
5:30 AM81 °FPassing clouds.1 mph94%29.92 "Hg5 mi
4:00 AM81 °FPassing clouds.2 mph94%29.89 "HgN/A
3:30 AM82 °FPassing clouds.1 mph94%29.89 "HgN/A
3:00 AM82 °FPassing clouds.1 mph89%29.89 "HgN/A
2:00 AM82 °FPassing clouds.2 mph89%29.92 "HgN/A
1:30 AM82 °FPassing clouds.2 mph89%29.92 "HgN/A
1:00 AM82 °FPassing clouds.7 mph89%29.92 "HgN/A
12:00 AM82 °FPassing clouds.9 mph89%29.92 "HgN/A
Weather by CustomWeather, © 2015

See weather overviewHow to use our weather pages